Change the Weather History Date:

Monday, April 7, 2014

  Actual Average Record
Temperature  
Mean Temperature 90 °F -  
Max Temperature 104 °F 90 °F 105 °F (1998)
Min Temperature 75 °F 71 °F 63 °F (2013)
Cooling Degree Days 24    
Growing Degree Days 40 (Base 50)    
Moisture  
Dew Point 74 °F    
Average Humidity 68    
Maximum Humidity 89    
Minimum Humidity 39    
Precipitation  
Precipitation 0.00 in - - ()
Sea Level Pressure  
Sea Level Pressure 29.71 in    
Wind  
Wind Speed 9 mph ()    
Max Wind Speed 23 mph    
Max Gust Speed 34 mph    
Visibility 6.2 miles    
Events      
Averages and records for this station are not official NWS values.
T = Trace of Precipitation, MM = Missing Value Source: Averaged Metar Reports

Daily Weather History Graph

Daily Weather History Graph

Search for Another Location

Airport or City:

Trip Planner

Search our weather history database for the weather conditions in past years. The results will help you decide how hot, cold, wet, or windy it might be!

Date:

Astronomy

Apr. 07, 2014 Rise Set
Actual Time 6:50 AM CDT 7:17 PM CDT
Civil Twilight 6:28 AM CDT 7:40 PM CDT
Nautical Twilight 6:02 AM CDT 8:06 PM CDT
Astronomical Twilight 5:36 AM CDT 8:32 PM CDT
Moon 1:06 PM CDT (4/7) 1:34 AM CDT (4/7)
Length of Visible Light 13h 11m
Length of Day
12h 27m
First Quarter, 53% of the Moon is Illuminated
Apr 7
First Quarter
Apr 15
Full
Apr 22
Last Quarter
Apr 29
New
May 6
First Quarter

Hourly Weather History & Observations

Time (CDT) Temp. Heat Index Dew Point Humidity Pressure Visibility Wind Dir Wind Speed Gust Speed Precip Events Conditions
12:50 AM 81 °F - 69 °F 60% 29.73 in 4 mi ESE 8.9 mph - -  
3:52 AM 77 °F - 72 °F 81% 29.70 in 4 mi SE 6.7 mph - -  
5:20 AM 77.0 °F - 73.4 °F 89% 29.68 in 7.0 mi ESE 4.6 mph - N/A   Clear
5:40 AM 77.0 °F - 73.4 °F 89% 29.68 in 7.0 mi ESE 13.8 mph - N/A   Clear
6:55 AM 76 °F - 72 °F 86% 29.91 in 6 mi SE 6.7 mph - -  
7:01 AM 77.0 °F - 73.4 °F 89% 29.69 in 7.0 mi ESE 4.6 mph - N/A   Clear
7:48 AM 77.0 °F - 73.4 °F 89% 29.70 in 7.0 mi ESE 6.9 mph - N/A   Clear
8:44 AM 80.6 °F 85.4 °F 73.4 °F 79% 29.71 in 7.0 mi ESE 11.5 mph - N/A   Clear
9:45 AM 84.2 °F 90.9 °F 73.4 °F 70% 29.72 in 7.0 mi ESE 11.5 mph 23.0 mph N/A   Clear
9:50 AM 86 °F - 76 °F 65% 29.73 in 6 mi ESE 8.9 mph - -  
10:40 AM 89.6 °F 96.2 °F 71.6 °F 55% 29.71 in 7.0 mi ESE 11.5 mph 23.0 mph N/A   Clear
11:40 AM 93.2 °F 100.5 °F 71.6 °F 49% 29.71 in 7.0 mi ESE 11.5 mph 23.0 mph N/A   Clear
12:50 PM 102 °F - 81 °F 42% 29.71 in 6 mi SE 6.7 mph - -  
12:51 PM 98.6 °F 105.5 °F 69.8 °F 39% 29.70 in 7.0 mi ESE 5.8 mph - N/A   Clear
1:45 PM 91.4 °F 98.4 °F 71.6 °F 52% 29.68 in 7.0 mi West 20.7 mph - N/A   Partly Cloudy
2:40 PM 91.4 °F 100.1 °F 73.4 °F 55% 29.66 in 7.0 mi West 11.5 mph 23.0 mph N/A   Partly Cloudy
3:42 PM 87.8 °F 99.7 °F 77.0 °F 70% 29.65 in 7.0 mi West 11.5 mph 23.0 mph N/A   Partly Cloudy
3:50 PM 91 °F - 78 °F 59% 29.68 in 6 mi WNW 8.9 mph - -  
4:41 PM 87.8 °F 97.6 °F 75.2 °F 66% 29.65 in 6.0 mi West 11.5 mph 23.0 mph N/A   Clear
5:41 PM 91.4 °F 98.4 °F 71.6 °F 52% 29.64 in 6.0 mi West 23.0 mph 34.5 mph N/A   Clear
6:41 PM 87.8 °F 95.6 °F 73.4 °F 62% 29.67 in 7.0 mi West 17.3 mph 28.8 mph N/A   Partly Cloudy
6:50 PM 87 °F - 75 °F 61% 29.69 in 6 mi WSW 8.9 mph - -  
7:42 PM 87.8 °F 92.6 °F 69.8 °F 55% 29.69 in 7.0 mi WSW 11.5 mph - N/A   Clear
8:41 PM 86.0 °F 93.4 °F 73.4 °F 66% 29.71 in 7.0 mi West 11.5 mph - N/A   Clear
9:42 PM 84.2 °F 92.3 °F 75.2 °F 74% 29.77 in 6.0 mi West 11.5 mph - N/A   Clear
9:50 PM 84 °F - 77 °F 75% 29.78 in 4 mi West 6.7 mph - -  
10:41 PM 82.4 °F 92.4 °F 78.8 °F 89% 29.79 in 5.0 mi West 11.5 mph - N/A   Scattered Clouds
10:56 PM 82.4 °F 92.4 °F 78.8 °F 89% 29.80 in 5.0 mi West 11.5 mph - N/A   Mostly Cloudy